Location: Bassano
(45.7667°N, 11.7333°E)
Time: 10:33:50
(UTC+00:00)

Envisat - Visible Passes

Search period start: 04 March 2021 00:00
Search period end: 14 March 2021 00:00
Orbit: 764 x 766 km, 98.1° (Epoch: 03 March)

Date Brightness Start Highest point End Pass type
(mag) Time Alt. Az. Time Alt. Az. Time Alt. Az.
04 Mar 4.5 04:23:33 10° NNE 04:28:20 40° E 04:33:05 10° SSE visible
05 Mar 5.8 03:47:36 10° NE 03:51:12 19° E 03:54:47 10° SE visible
06 Mar 3.4 04:48:44 10° NNE 04:53:49 68° ESE 04:58:52 10° S visible
07 Mar 4.9 04:12:17 10° NNE 04:16:50 32° E 04:21:20 10° SSE visible
08 Mar 6.0 03:36:43 10° NE 03:39:39 15° E 03:42:34 10° SE visible
09 Mar 3.9 04:37:22 10° NNE 04:42:22 54° E 04:47:19 10° S visible
10 Mar 5.3 04:01:06 10° NE 04:05:19 26° E 04:09:30 10° SSE visible
11 Mar 6.2 03:26:10 10° ENE 03:28:04 12° E 03:29:57 10° ESE visible
12 Mar 4.4 04:26:02 10° NNE 04:30:53 43° E 04:35:42 10° S visible
13 Mar 5.7 03:50:00 10° NE 03:53:47 21° E 03:57:32 10° SE visible
